FW1683 Weather Reports


time (UTC)temp
F
wind
direction
speed
knots
gust
knots
rain 1hr
in
rain 24hr
in
rain mn
in
humidity
%
barometer
mb
20260502202007 66 91 3.5 6.1 0.00 0.00 0.00 81 1017.0
20260502200024 66 101 4.3 7.8 0.00 0.00 0.00 81 1017.2
20260502195007 66 100 4.3 7.0 0.00 0.00 0.00 81 1017.0
20260502193008 66 86 3.5 5.2 0.00 0.00 0.00 81 1017.1
20260502191009 66 104 5.2 7.8 0.00 0.00 0.00 81 1016.7
20260502190009 66 111 6.1 8.7 0.00 0.00 0.00 80 1016.7
20260502185008 66 87 6.1 9.6 0.00 0.00 0.00 80 1016.6
20260502184009 66 96 5.2 8.7 0.00 0.00 0.00 80 1016.7
20260502183011 66 107 6.1 9.6 0.00 0.00 0.00 79 1017.0
20260502182008 67 109 6.1 8.7 0.00 0.00 0.00 79 1017.1
20260502181029 67 107 5.2 8.7 0.00 0.00 0.00 78 1017.2
20260502164009 68 124 6.1 10.4 0.00 0.00 0.00 77 1017.5
20260502163011 69 109 7.0 10.4 0.00 0.00 0.00 76 1017.5
20260502162007 69 116 7.0 10.4 0.00 0.00 0.00 75 1017.5
20260502152007 71 111 6.1 9.6 0.00 0.00 0.00 70 1017.7
20260502151007 70 112 7.0 9.6 0.00 0.00 0.00 69 1017.9
20260502123012 69 108 8.7 13.9 0.00 0.00 0.00 75 1019.3
20260502122007 69 123 7.8 12.2 0.00 0.00 0.00 77 1019.6
20260502121007 69 123 7.0 10.4 0.00 0.00 0.00 77 1019.9
20260502115006 70 108 6.1 10.4 0.00 0.00 0.00 74 1019.7
20260502114009 70 101 7.0 10.4 0.00 0.00 0.00 73 1019.6
20260502113018 70 107 6.1 9.6 0.00 0.00 0.00 71 1019.8
20260502112007 71 97 6.1 9.6 0.00 0.00 0.00 70 1019.9
20260502111008 71 93 5.2 7.8 0.00 0.00 0.00 70 1019.9
20260502110012 71 97 6.1 9.6 0.00 0.00 0.00 70 1020.1
20260502105007 71 105 6.1 9.6 0.00 0.00 0.00 70 1020.2
20260502104009 71 103 6.1 9.6 0.00 0.00 0.00 70 1020.2
20260502103012 72 98 3.5 6.1 0.00 0.00 0.00 68 1020.3
20260502102008 73 73 3.5 6.1 0.00 0.00 0.00 65 1019.1
20260502101010 73 84 3.5 5.2 0.00 0.00 0.00 64 1019.1
20260502091011 71 60 4.3 7.8 0.00 0.00 0.00 69 1020.5
20260502071007 67 40 4.3 7.0 0.00 0.00 0.00 79 1020.6
20260502065007 66 47 5.2 7.8 0.00 0.00 0.00 80 1020.4
20260502064009 65 45 5.2 7.8 0.00 0.00 0.00 82 1020.5
20260502063016 65 42 4.3 6.1 0.00 0.00 0.00 82 1020.8
20260502062008 65 25 2.6 4.3 0.00 0.00 0.00 83 1020.8
20260502060019 65 31 3.5 6.1 0.00 0.00 0.00 85 1020.5
20260502055008 65 36 3.5 6.1 0.00 0.00 0.00 86 1020.4
20260502054009 65 17 3.5 6.1 0.00 0.00 0.00 86 1020.4
20260502053012 65 28 3.5 5.2 0.00 0.00 0.00 87 1020.3
20260502052008 65 47 3.5 5.2 0.00 0.00 0.00 87 1020.3
20260502045007 65 22 2.6 4.3 0.00 0.00 0.00 88 1020.2
20260502044010 65 11 1.7 3.5 0.00 0.00 0.00 88 1020.3
20260502043019 65 3 0.9 1.7 0.00 0.00 0.00 88 1020.3
20260502042012 65 32 1.7 3.5 0.00 0.00 0.00 89 1020.3
20260502041008 65 13 2.6 4.3 0.00 0.00 0.00 89 1020.4
20260502040027 65 353 2.6 4.3 0.00 0.00 0.00 88 1020.5
20260502035007 65 0 1.7 3.5 0.00 0.00 0.00 88 1020.6
20260502034008 65 28 2.6 4.3 0.00 0.00 0.00 88 1020.7
20260502032009 65 62 1.7 3.5 0.00 0.00 0.00 87 1020.8
20260502031008 65 75 3.5 5.2 0.00 0.00 0.00 87 1020.7
20260502030009 65 54 3.5 5.2 0.00 0.00 0.00 87 1020.7
20260502025008 65 56 3.5 5.2 0.00 0.00 0.00 87 1020.6
20260502024008 65 63 2.6 5.2 0.00 0.00 0.00 87 1020.6
20260502023011 65 62 3.5 5.2 0.00 0.00 0.00 87 1020.6
20260502022028 65 77 3.5 6.1 0.00 0.00 0.00 87 1020.7
20260502021008 65 63 3.5 5.2 0.00 0.00 0.00 87 1020.7
20260502020039 65 51 3.5 5.2 0.00 0.00 0.00 87 1020.8
20260502015007 65 56 3.5 5.2 0.00 0.00 0.00 87 1020.9
20260502014007 65 56 4.3 6.1 0.00 0.00 0.00 87 1020.9
20260502012007 65 55 1.7 2.6 0.00 0.00 0.00 86 1021.1
20260502011007 65 49 1.7 3.5 0.00 0.00 0.00 86 1021.2
20260502010009 65 47 3.5 4.3 0.00 0.00 0.00 85 1021.3
20260502005007 65 59 3.5 6.1 0.00 0.00 0.00 85 1021.4
20260502004010 65 56 3.5 7.0 0.00 0.00 0.00 85 1021.4
20260502003026 65 55 3.5 4.3 0.00 0.00 0.00 84 1021.4
20260502002007 65 62 3.5 6.1 0.00 0.00 0.00 84 1021.5
20260502001008 65 58 2.6 4.3 0.00 0.00 0.00 84 1021.8
20260502000026 65 61 2.6 5.2 0.00 0.00 0.00 84 1021.9
20260501235007 65 75 2.6 3.5 0.00 0.00 0.00 85 1022.0
20260501232007 65 59 3.5 5.2 0.00 0.00 0.00 85 1022.3
20260501231007 65 52 4.3 7.0 0.00 0.00 0.00 85 1022.2
20260501230022 65 53 4.3 7.0 0.00 0.00 0.00 85 1022.1
20260501225008 66 47 4.3 7.0 0.00 0.00 0.00 86 1022.1
20260501224008 66 37 3.5 6.1 0.00 0.00 0.00 86 1022.1
20260501223010 66 50 5.2 7.8 0.00 0.00 0.00 86 1022.1
20260501222007 66 50 4.3 7.0 0.00 0.00 0.00 86 1022.1
20260501221008 65 67 4.3 7.0 0.00 0.00 0.00 85 1022.2
20260501220010 65 48 5.2 8.7 0.00 0.00 0.13 84 1022.3
20260501214008 65 62 5.2 7.8 0.00 0.00 0.13 84 1022.4
20260501213010 65 73 5.2 8.7 0.00 0.00 0.13 84 1022.6
20260501212007 66 56 4.3 7.0 0.00 0.00 0.13 83 1022.4
20260501211008 66 51 6.1 9.6 0.00 0.00 0.13 84 1022.5
20260501210033 66 68 4.3 7.0 0.00 0.00 0.13 84 1022.6
20260501205022 66 72 3.5 5.2 0.00 0.00 0.13 84 1022.7
20260501204020 65 51 4.3 6.1 0.00 0.00 0.13 84 1022.7
20260501203024 65 60 5.2 9.6 0.00 0.00 0.13 84 1022.6